Voltar ao catálogo

CSTP-4.1

AtivoCiênciaSSO
NORAD 64884·PAYLOAD·🇷🇺 Russia
Este nome de satélite ainda não foi confirmado por fontes oficiais.

Lançado Jul 25, 2025 de Vostochny Cosmodrome

Loading…

Próximas Passagens (próximas 24 horas)

TLE

AtualizadoSource: Space-Track

Época: Sep 14, 2026, 14:50 UTC

1 64884U 25155J   26257.61810028  .00007586  00000-0  25695-3 0  9992
2 64884  97.4679 226.5267 0006776 193.0031 167.1036 15.30845621 94436

Acompanhe CSTP-4.1 em tempo real com AllMySat

Download on the App Store